Flag for Peru Weather past 2 weeks in Chiclayo, Lambayeque, Peru

Now
73 °F

Sunny.


Feels Like: 74 °F
Forecast: 68 / 83 °F
Wind: 18 mph from South

Location: Chiclayo Airport

Current Time: Apr 25, 2015 at 7:03:30 PM

Latest Report: Apr 25, 2015 at 6:00 PM


Visibility: 10 mi

Pressure: 29.80 "Hg

Humidity: 78%

Dew point: 66 °F

Location of ChiclayoLocation

Historic Weather in Chiclayo — Graph

°F

Chiclayo temperature yesterday

Maximum temperature yesterday: 82 °F (at 12:00 PM)
Minimum temperature yesterday: 70 °F (at 5:00 AM)
Average temperature yesterday: 75 °F

Past Weeks' High & Low Weather Summary

 TemperatureHumidityPressure
High86 °F (Apr 13, 1:00 PM)89% (Apr 16, 7:00 PM)29.98 "Hg (Apr 16, 7:00 PM)
Low68 °F (Apr 21, 3:00 AM)52% (Apr 13, 1:00 PM)29.53 "Hg (Apr 10, 7:00 PM)
Average75 °F75%29.85 "Hg
* Reported Apr 10 6:00 PM — Apr 25 6:00 PM, Chiclayo, Weather by CustomWeather, © 2015

Note: Actual official high and low records may vary slightly from our data, if they occured in-between our weather recording intervals... More about our weather records

Advertising

Chiclayo weather history for previous 24 hours

 ConditionsComfort  
Time TempWeatherWind HumidityBarometerVisibility
6:00 PM
Sat, Apr 25
73 °FSunny.18 mph78%29.80 "Hg10 mi
5:00 PM75 °FSunny.21 mph74%29.80 "Hg10 mi
4:00 PM77 °FSunny.22 mph69%29.80 "Hg10 mi
3:00 PM77 °FPartly sunny.21 mph69%29.80 "HgN/A
2:00 PM79 °FSunny.20 mph65%29.83 "Hg10 mi
1:00 PM79 °FSunny.18 mph65%29.83 "Hg10 mi
12:00 PM81 °FSunny.16 mph58%29.86 "Hg10 mi
11:00 AM81 °FSunny.15 mph58%29.89 "Hg10 mi
10:00 AM77 °FSunny.13 mph65%29.89 "Hg10 mi
9:00 AM75 °FSunny.14 mph69%29.92 "Hg10 mi
8:00 AM72 °FSunny.13 mph78%29.89 "Hg10 mi
7:00 AM68 °FSunny.9 mph88%29.89 "Hg10 mi
6:00 AM68 °FClear.7 mph88%29.86 "Hg10 mi
5:00 AM68 °FClear.10 mph88%29.86 "Hg10 mi
4:00 AM68 °FClear.9 mph88%29.86 "Hg10 mi
3:00 AM70 °FClear.8 mph83%29.89 "Hg10 mi
2:00 AM70 °FClear.9 mph83%29.89 "Hg10 mi
1:00 AM70 °FClear.12 mph88%29.89 "Hg10 mi
12:00 AM72 °FClear.14 mph83%29.92 "Hg10 mi
11:00 PM
Fri, Apr 24
72 °FClear.13 mph83%29.89 "Hg10 mi
10:00 PM72 °FClear.15 mph83%29.92 "Hg10 mi
9:00 PM72 °FClear.18 mph83%29.89 "Hg10 mi
8:00 PM72 °FClear.20 mph83%29.89 "Hg10 mi
7:00 PM72 °FClear.18 mph83%29.86 "Hg10 mi
Weather by CustomWeather, © 2015

See weather overviewHow to use our weather pages